Location: Township of Marena
(38.1747°N, 99.6798°W)
Time: 11:05:27
(UTC+00:00)

CZ-3 R/B - Pass Details

Date: 26 October 2020
Orbit: 373 x 10236 km, 28.4° (Epoch: 24 November)

Event Time Altitude Azimuth Distance (km) Brightness Sun altitude
Exits shadow 10:41:55 27° 241° (WSW) 7,031 5.3 -27.5°
Maximum altitude 10:57:33 54° 181° (S) 2,957 3.8 -24.5°
Drops below altitude 10° 11:06:03 10° 105° (ESE) 3,299 5.3 -22.8°
Sets 11:07:55 0° 100° (E) 3,837 6.0 -22.4°
